This is the latest recevied weather packets stored in our database for station/object DH1NAI-6. If no packets are shown the sender has not sent any weather packets the latest 10 day(s).
| Time | Temp. | Humidity | Pressure | Rain* | Wind** | Luminosity | Snow |
|---|---|---|---|---|---|---|---|
| 1778183920 | 6.11° C | 99% | 1013.8 hPa | 0 mm | - | 0 W/m² | - |
| 1778183312 | 6.11° C | 99% | 1013.6 hPa | 0 mm | - | 0 W/m² | - |
| 1778182704 | 6.11° C | 99% | 1013.5 hPa | 0 mm | - | 0 W/m² | - |
| 1778182080 | 6.11° C | 99% | 1013.3 hPa | 0 mm | - | 0 W/m² | - |
| 1778181456 | 6.11° C | 99% | 1013.2 hPa | 0 mm | - | 0 W/m² | - |
| 1778180849 | 6.11° C | 99% | 1013.2 hPa | 0 mm | - | 0 W/m² | - |
| 1778180240 | 6.11° C | 99% | 1013.1 hPa | 1.02 mm | - | 0 W/m² | - |
| 1778179616 | 6.11° C | 99% | 1012.9 hPa | 1.02 mm | - | 0 W/m² | - |
| 1778178993 | 6.11° C | 99% | 1012.9 hPa | 0 mm | - | 0 W/m² | - |
| 1778178384 | 6.11° C | 99% | 1012.9 hPa | 0 mm | - | 0 W/m² | - |
| 1778177777 | 6.11° C | 99% | 1012.8 hPa | 0 mm | - | 1 W/m² | - |
| 1778177168 | 6.11° C | 99% | 1012.7 hPa | 0 mm | - | 2 W/m² | - |
| 1778176561 | 6.67° C | 99% | 1012.9 hPa | 1.02 mm | - | 3 W/m² | - |
| 1778175952 | 6.11° C | 99% | 1012.7 hPa | 1.02 mm | - | 3 W/m² | - |
| 1778175345 | 6.67° C | 99% | 1012.5 hPa | 1.02 mm | - | 4 W/m² | - |
| 1778174732 | 6.67° C | 99% | 1012.3 hPa | 1.02 mm | - | 7 W/m² | - |
| 1778174129 | 6.67° C | 99% | 1012.2 hPa | 1.02 mm | - | 9 W/m² | - |
| 1778173520 | 6.67° C | 99% | 1012.3 hPa | 0 mm | - | 9 W/m² | - |
| 1778172896 | 6.67° C | 99% | 1012.2 hPa | 1.02 mm | - | 13 W/m² | - |
| 1778172273 | 7.22° C | 99% | 1012.4 hPa | 1.02 mm | - | 10 W/m² | - |
| 1778171664 | 7.22° C | 99% | 1012.2 hPa | 1.02 mm | - | 10 W/m² | - |
| 1778171057 | 7.78° C | 99% | 1011.9 hPa | 1.02 mm | - | 11 W/m² | - |
| 1778170448 | 7.22° C | 99% | 1011.9 hPa | 1.02 mm | - | 16 W/m² | - |
| 1778169841 | 7.22° C | 99% | 1011.9 hPa | 1.02 mm | - | 13 W/m² | - |
| 1778169232 | 7.22° C | 99% | 1011.8 hPa | 1.02 mm | - | 13 W/m² | - |
* Rain latest hour (hover to see other rain measurements)
** Current wind speed in m/s (hover to see current wind gust speed)